weather.gov     
National Weather Service

Terminal Aerodrome Forecast
NWS Homepage
This page is being discontinued on March 12, 2014.
The same data is available at this site. Please update your bookmarks.
Thank you, and we apologize for the inconvenience.
Please send an email to SR-SRH.Webmaster@noaa.gov with any concerns.


Current Version
Previous Version:    01  02  03  04  05  06  07  08  09  10  11  12  13  14  15  16  17  18  19  20  21  22  23  24  25  26  27  
[Printable]
068
FTAK31 PAJN 301700
TAFAWG
TAF
PAWG 301736Z 3018/3118 30004KT P6SM -RA SCT015 OVC040
     FM302000 31003KT 6SM -RA BR OVC035
     FM310100 12006KT P6SM VCSH SCT025 OVC040
      AMD LTD TO CLD VIS AND WIND 3106/3115=


U.S. Dept. of Commerce
NOAA National Weather Service
1325 East West Highway
Silver Spring, MD 20910
E-mail: w-nws.webmaster@noaa.gov
Page last modified: May 16, 2007
NATIONAL WEATHER SERVICE: for Safety, for Work, for Fun - FOR LIFE